User: anonymous   Login
Location: Young's Pond
(41.2695°N, 72.7766°W)
Time: 10:26:39
(UTC-05:00)
Language:

Spot 4 - Orbit

View from above orbital plane
View from above orbital plane
View from above satellite
View from above satellite

Ground track
Ground track

The orbit data is extracted from the following two-line orbital elements,

1 25260U 98017A   18023.14498492  .00000016  00000-0  14917-4 0  9998
2 25260  98.3354 109.6309 0012338 323.4660  36.5700 14.53517186 33804
Epoch (UTC): 23 January 2018 03:28:46
Eccentricity: 0.0012338
inclination: 98.3354°
perigee height: 705 km
apogee height: 723 km
right ascension of ascending node: 109.6309°
argument of perigee: 323.4660°
revolutions per day: 14.53517186
mean anomaly at epoch: 36.5700°
orbit number at epoch: 3380

The dashed part of the orbit path shows where the satellite is in the earth's shadow,  

DLR